This is the latest recevied weather packets stored in our database for station/object AE6BH. If no packets are shown the sender has not sent any weather packets the latest 10 day(s).
| Time | Temp. | Humidity | Pressure | Rain* | Wind** | Luminosity | Snow |
|---|---|---|---|---|---|---|---|
| 1777644257 | 14.44° C | 75% | 1014.5 hPa | 0 mm | - | 28 W/m² | - |
| 1777643954 | 14.44° C | 75% | 1014.6 hPa | 0 mm | - | 20 W/m² | - |
| 1777643651 | 14.44° C | 75% | 1014.6 hPa | 0 mm | - | 17 W/m² | - |
| 1777643348 | 14.44° C | 75% | 1014.7 hPa | 0 mm | - | 15 W/m² | - |
| 1777643045 | 14.44° C | 75% | 1014.7 hPa | 0 mm | - | 11 W/m² | - |
| 1777642741 | 14.44° C | 75% | 1014.8 hPa | 0 mm | - | 9 W/m² | - |
| 1777642438 | 14.44° C | 75% | 1014.8 hPa | 0 mm | - | 7 W/m² | - |
| 1777642134 | 13.89° C | 75% | 1014.5 hPa | 0 mm | - | 4 W/m² | - |
| 1777641830 | 13.89° C | 75% | 1014.5 hPa | 0 mm | - | 3 W/m² | - |
| 1777641526 | 13.89° C | 75% | 1014.3 hPa | 0 mm | - | 3 W/m² | - |
| 1777641221 | 14.44° C | 75% | 1014.5 hPa | 0 mm | - | 1 W/m² | - |
| 1777640918 | 13.89° C | 75% | 1014.4 hPa | 0 mm | - | 0 W/m² | - |
| 1777640615 | 13.89° C | 75% | 1014.3 hPa | 0 mm | - | 0 W/m² | - |
| 1777640311 | 13.89° C | 75% | 1014.3 hPa | 0 mm | - | 0 W/m² | - |
| 1777640008 | 13.89° C | 75% | 1014.3 hPa | 0 mm | - | 0 W/m² | - |
| 1777639705 | 13.89° C | 75% | 1014.3 hPa | 0 mm | - | 0 W/m² | - |
| 1777639402 | 14.44° C | 76% | 1014.4 hPa | 0 mm | - | 0 W/m² | - |
| 1777639097 | 14.44° C | 76% | 1014.2 hPa | 0 mm | - | 0 W/m² | - |
| 1777638795 | 14.44° C | 75% | 1014.2 hPa | 0 mm | - | 0 W/m² | - |
| 1777638495 | 14.44° C | 76% | 1014.2 hPa | 0 mm | - | 0 W/m² | - |
| 1777638192 | 14.44° C | 76% | 1014.2 hPa | 0 mm | - | 0 W/m² | - |
| 1777637888 | 14.44° C | 76% | 1014.1 hPa | 0 mm | - | 0 W/m² | - |
| 1777637584 | 13.89° C | 76% | 1014 hPa | 0 mm | - | 0 W/m² | - |
| 1777637282 | 13.89° C | 76% | 1014 hPa | 0 mm | - | 0 W/m² | - |
| 1777636978 | 13.89° C | 76% | 1014.1 hPa | 0 mm | - | 0 W/m² | - |
* Rain latest hour (hover to see other rain measurements)
** Current wind speed in m/s (hover to see current wind gust speed)